sat.trackr.live / text

‹ back to catalog

SHIYAN-4 (SY-4)

NORAD 37931 · 2011-068B

PAYLOAD ACTIVE UNKNOWN

§ Identity

Operator
Country
PRC
Launch date
2011-11-20
Launch site
JSC
Launch vehicle
Mass (kg)
RCS (m²)
1.16

External: N2YO · Heavens-Above · Gunter

§ Orbital elements

Epoch: 2026-05-25T00:37:39.844704Z

Period
100.62 min
Inclination
98.6959°
Eccentricity
0.0022286
Mean motion
14.31118297 rev/d
Perigee alt
772.0 km
Apogee alt
804.0 km
Semi-major
7,166.1 km
B*
6.6235e-5
RAAN
164.0250°
Arg perigee
211.3081°
Mean anomaly
203.3507°
Rev number
75,558

§ Raw data

SHIYAN-4 (SY-4)1 37931U 11068B   26145.02615561  .00000130  00000+0  66235-4 0  99922 37931  98.6959 164.0250 0022286 211.3081 203.3507 14.31118297755582

JSON: /api/v1/satellites/37931 · /tle

For live sub-satellite position, see the globe view (requires WebGL).

§ Visibility from observer

Set your observer location to see the next 7 days of passes ≥ 10°. The values pass through the URL so the page stays shareable.

No JS? Fill the form by hand. The geolocation button needs JavaScript.